Location: Melbourne
(37.8170°S, 144.9670°E)
Time: 09:37:57
(UTC+10:00)

Vanguard 1 Rocket - Visible Passes

Search period start: 19 April 2014 00:00
Search period end: 29 April 2014 00:00
Orbit: 650 x 4230 km, 34.3° (Epoch: 18 April)

Date Brightness Start Highest point End Pass type
(mag) Time Alt. Az. Time Alt. Az. Time Alt. Az.
19 Apr 10.9 19:01:10 10° WSW 19:26:15 59° NNW 19:46:23 10° NE visible
19 Apr 11.1 21:37:12 10° W 21:54:30 25° NW 22:04:09 16° NNW visible
20 Apr 11.0 17:47:15 10° W 18:11:50 70° NNW 18:34:51 10° NE visible
20 Apr 11.1 20:20:08 10° WSW 20:42:22 38° NW 20:58:05 13° NNE visible
21 Apr 11.1 19:04:58 10° WSW 19:29:12 52° NW 19:49:25 10° NNE visible
21 Apr 11.3 21:42:49 10° W 21:57:01 19° NW 22:08:38 10° NNW visible
22 Apr 11.1 17:51:03 10° W 18:15:02 64° NNW 18:38:09 10° NE visible
22 Apr 11.3 20:24:28 10° W 20:45:00 32° NW 21:01:34 10° N visible
23 Apr 11.3 19:08:55 10° WSW 19:32:02 45° NW 19:52:09 10° NNE visible
23 Apr 11.6 21:50:21 10° W 21:59:34 13° WNW 22:07:47 10° NW visible
24 Apr 11.2 17:54:55 10° W 18:18:08 58° NNW 18:41:12 10° NE visible
24 Apr 11.5 20:29:20 10° W 20:47:36 25° NW 21:03:10 10° N visible
25 Apr 11.5 19:13:06 10° W 19:34:48 38° NW 19:54:29 10° NNE visible
26 Apr 11.4 17:58:52 10° W 18:21:09 51° NW 18:43:58 10° NNE visible
26 Apr 11.7 20:35:06 10° W 20:50:13 19° NW 21:03:48 10° NNW visible
27 Apr 11.6 19:17:37 10° W 19:37:32 31° NW 19:56:21 10° N visible
28 Apr 11.6 18:02:59 10° W 18:24:06 44° NW 18:46:24 10° NNE visible
28 Apr 11.9 20:42:50 10° WNW 20:52:55 14° NW 21:02:28 10° NNW visible
